| time (UTC) | temp F | wind direction | speed MPH | gust MPH | rain 1hr in | rain 24hr in | rain mn in | humidity % | barometer mb |
| 20260905124516 | 61 | 234 | 3.0 | 9.0 | 0.00 | 0.00 | 0.00 | 49 | 1010.9 |
| 20260905123012 | 61 | 204 | 3.0 | 8.0 | 0.00 | 0.00 | 0.00 | 49 | 1010.8 |
| 20260905121512 | 61 | 220 | 2.0 | 6.0 | 0.00 | 0.00 | 0.00 | 52 | 1010.7 |
| 20260905120010 | 61 | 204 | 3.0 | 9.0 | 0.00 | 0.00 | 0.00 | 53 | 1010.7 |
| 20260905114509 | 61 | 194 | 3.0 | 9.0 | 0.00 | 0.00 | 0.00 | 56 | 1010.8 |
| 20260905113006 | 60 | 205 | 2.0 | 8.0 | 0.00 | 0.00 | 0.00 | 42 | 1010.9 |
| 20260905111505 | 60 | 190 | 3.0 | 10.0 | 0.00 | 0.00 | 0.00 | 50 | 1010.8 |
| 20260905110002 | 59 | 178 | 3.0 | 7.0 | 0.00 | 0.00 | 0.00 | 41 | 1011.0 |
| 20260905104612 | 58 | 171 | 3.0 | 8.0 | 0.00 | 0.00 | 0.00 | 32 | 1011.1 |
| 20260905103059 | 58 | 169 | 3.0 | 11.0 | 0.00 | 0.00 | 0.00 | 35 | 1011.1 |
| 20260905101601 | 58 | 199 | 4.0 | 14.0 | 0.00 | 0.00 | 0.00 | 39 | 1011.0 |
| 20260905100054 | 57 | 172 | 4.0 | 8.0 | 0.00 | 0.00 | 0.00 | 39 | 1011.0 |
| 20260905094553 | 57 | 185 | 4.0 | 7.0 | 0.00 | 0.00 | 0.00 | 36 | 1011.2 |
| 20260905093051 | 57 | 185 | 3.0 | 15.0 | 0.00 | 0.00 | 0.00 | 32 | 1011.3 |
| 20260905091547 | 57 | 225 | 3.0 | 8.0 | 0.00 | 0.00 | 0.00 | 26 | 1011.2 |
| 20260905090112 | 57 | 179 | 3.0 | 9.0 | 0.00 | 0.00 | 0.00 | 23 | 1011.4 |
| 20260905084543 | 57 | 171 | 3.0 | 8.0 | 0.00 | 0.00 | 0.00 | 22 | 1011.5 |
| 20260905083041 | 57 | 214 | 4.0 | 9.0 | 0.00 | 0.00 | 0.00 | 23 | 1011.6 |
| 20260905081540 | 57 | 150 | 4.0 | 13.0 | 0.00 | 0.00 | 0.00 | 25 | 1011.6 |
| 20260905080037 | 57 | 187 | 4.0 | 12.0 | 0.00 | 0.00 | 0.00 | 26 | 1011.6 |
| 20260905074536 | 57 | 178 | 4.0 | 10.0 | 0.00 | 0.00 | 0.00 | 27 | 1011.8 |
| 20260905073039 | 57 | 125 | 3.0 | 10.0 | 0.00 | 0.00 | 0.00 | 27 | 1011.9 |
| 20260905071529 | 57 | 227 | 4.0 | 8.0 | 0.00 | 0.00 | 0.00 | 22 | 1011.8 |
| 20260905070026 | 57 | 236 | 4.0 | 9.0 | 0.00 | 0.00 | 0.00 | 20 | 1011.7 |
| 20260905064526 | 57 | 173 | 4.0 | 12.0 | 0.00 | 0.00 | 0.00 | 18 | 1011.6 |
| 20260905063025 | 58 | 248 | 4.0 | 12.0 | 0.00 | 0.00 | 0.00 | 19 | 1011.6 |
| 20260905061535 | 58 | 197 | 4.0 | 9.0 | 0.00 | 0.00 | 0.00 | 19 | 1011.6 |
| 20260905060024 | 58 | 178 | 3.0 | 8.0 | 0.00 | 0.00 | 0.00 | 19 | 1011.5 |
| 20260905054530 | 58 | 129 | 3.0 | 10.0 | 0.00 | 0.00 | 0.00 | 19 | 1011.6 |
| 20260905053022 | 58 | 190 | 4.0 | 8.0 | 0.00 | 0.00 | 0.00 | 21 | 1011.7 |
| 20260905051524 | 58 | 225 | 3.0 | 8.0 | 0.00 | 0.00 | 0.00 | 23 | 1011.7 |
| 20260905050022 | 58 | 192 | 3.0 | 7.0 | 0.00 | 0.00 | 0.00 | 24 | 1011.6 |
| 20260905044527 | 59 | 215 | 2.0 | 7.0 | 0.00 | 0.00 | 0.00 | 24 | 1011.4 |
| 20260905043021 | 59 | 229 | 3.0 | 8.0 | 0.00 | 0.00 | 0.00 | 23 | 1011.3 |
| 20260905041529 | 59 | 227 | 3.0 | 10.0 | 0.00 | 0.00 | 0.00 | 22 | 1011.3 |
| 20260905040020 | 59 | 247 | 2.0 | 9.0 | 0.00 | 0.00 | 0.00 | 22 | 1011.2 |
| 20260905034519 | 59 | 218 | 2.0 | 8.0 | 0.00 | 0.00 | 0.00 | 26 | 1011.1 |
| 20260905033019 | 60 | 190 | 2.0 | 6.0 | 0.00 | 0.00 | 0.00 | 27 | 1011.0 |
| 20260905031520 | 60 | 196 | 2.0 | 7.0 | 0.00 | 0.00 | 0.00 | 24 | 1010.8 |
| 20260905030018 | 61 | 192 | 2.0 | 8.0 | 0.00 | 0.00 | 0.00 | 26 | 1010.5 |
| 20260905024517 | 61 | 198 | 1.0 | 6.0 | 0.00 | 0.00 | 0.00 | 31 | 1010.3 |
| 20260905023017 | 61 | 215 | 2.0 | 5.0 | 0.00 | 0.00 | 0.00 | 36 | 1010.3 |
| 20260905021527 | 62 | 196 | 1.0 | 4.0 | 0.00 | 0.00 | 0.00 | 43 | 1010.3 |
| 20260905020014 | 63 | 145 | 1.0 | 6.0 | 0.00 | 0.00 | 0.00 | 39 | 1010.3 |
| 20260905014514 | 65 | 200 | 2.0 | 5.0 | 0.00 | 0.00 | 0.00 | 39 | 1010.2 |
| 20260905013016 | 66 | 153 | 2.0 | 8.0 | 0.00 | 0.00 | 0.00 | 38 | 1010.1 |
| 20260905011513 | 67 | 205 | 2.0 | 8.0 | 0.00 | 0.00 | 0.00 | 37 | 1010.2 |
| 20260905010012 | 67 | 169 | 4.0 | 9.0 | 0.00 | 0.00 | 0.00 | 30 | 1010.1 |
| 20260905004511 | 68 | 284 | 1.0 | 7.0 | 0.00 | 0.00 | 0.00 | 39 | 1010.1 |
| 20260905003008 | 70 | 191 | 2.0 | 6.0 | 0.00 | 0.00 | 0.00 | 42 | 1010.2 |
| 20260905001505 | 71 | 196 | 2.0 | 8.0 | 0.00 | 0.00 | 0.00 | 40 | 1010.1 |
| 20260905000004 | 72 | 266 | 3.0 | 7.0 | 0.00 | 0.00 | 0.00 | 40 | 1010.1 |
| 20260904234503 | 73 | 206 | 2.0 | 6.0 | 0.00 | 0.00 | 0.00 | 36 | 1010.4 |
| 20260904233003 | 73 | 169 | 3.0 | 9.0 | 0.00 | 0.00 | 0.00 | 34 | 1010.6 |
| 20260904231502 | 73 | 250 | 2.0 | 10.0 | 0.00 | 0.00 | 0.00 | 36 | 1010.6 |
| 20260904230109 | 74 | 229 | 3.0 | 11.0 | 0.00 | 0.00 | 0.00 | 33 | 1010.8 |
| 20260904224559 | 74 | 171 | 3.0 | 7.0 | 0.00 | 0.00 | 0.00 | 29 | 1010.9 |
| 20260904223101 | 74 | 248 | 2.0 | 8.0 | 0.00 | 0.00 | 0.00 | 29 | 1011.1 |
| 20260904221558 | 75 | 82 | 2.0 | 9.0 | 0.00 | 0.00 | 0.00 | 28 | 1011.2 |
| 20260904220056 | 75 | 250 | 3.0 | 7.0 | 0.00 | 0.00 | 0.00 | 22 | 1011.3 |
| 20260904214604 | 75 | 167 | 2.0 | 7.0 | 0.00 | 0.00 | 0.00 | 21 | 1011.5 |
| 20260904213054 | 76 | 166 | 2.0 | 6.0 | 0.00 | 0.00 | 0.00 | 18 | 1011.7 |
| 20260904211556 | 76 | 182 | 1.0 | 8.0 | 0.00 | 0.00 | 0.00 | 19 | 1011.7 |
| 20260904210052 | 76 | 158 | 2.0 | 8.0 | 0.00 | 0.00 | 0.00 | 19 | 1011.7 |
| 20260904204552 | 76 | 221 | 1.0 | 14.0 | 0.00 | 0.00 | 0.00 | 20 | 1011.6 |
| 20260904203049 | 76 | 173 | 2.0 | 9.0 | 0.00 | 0.00 | 0.00 | 18 | 1011.8 |
| 20260904201548 | 76 | 207 | 2.0 | 8.0 | 0.00 | 0.00 | 0.00 | 19 | 1011.9 |
| 20260904200047 | 75 | 221 | 2.0 | 6.0 | 0.00 | 0.00 | 0.00 | 19 | 1011.9 |
| 20260904194600 | 75 | 112 | 1.0 | 5.0 | 0.00 | 0.00 | 0.00 | 20 | 1012.2 |
| 20260904193045 | 75 | 237 | 2.0 | 6.0 | 0.00 | 0.00 | 0.00 | 19 | 1012.2 |
| 20260904191543 | 74 | 242 | 2.0 | 5.0 | 0.00 | 0.00 | 0.00 | 21 | 1012.2 |
| 20260904190042 | 73 | 88 | 2.0 | 8.0 | 0.00 | 0.00 | 0.00 | 21 | 1012.3 |
| 20260904184539 | 73 | 213 | 1.0 | 6.0 | 0.00 | 0.00 | 0.00 | 21 | 1012.3 |
| 20260904183040 | 73 | 178 | 1.0 | 6.0 | 0.00 | 0.00 | 0.00 | 21 | 1012.2 |
| 20260904181539 | 72 | 152 | 1.0 | 5.0 | 0.00 | 0.00 | 0.00 | 21 | 1012.2 |
| 20260904180048 | 72 | 244 | 2.0 | 5.0 | 0.00 | 0.00 | 0.00 | 21 | 1012.3 |
| 20260904174541 | 71 | 195 | 2.0 | 5.0 | 0.00 | 0.00 | 0.00 | 21 | 1012.2 |
| 20260904173038 | 70 | 215 | 2.0 | 5.0 | 0.00 | 0.00 | 0.00 | 20 | 1011.9 |
| 20260904171600 | 69 | 234 | 2.0 | 6.0 | 0.00 | 0.00 | 0.00 | 22 | 1011.9 |
| 20260904170027 | 68 | 182 | 1.0 | 5.0 | 0.00 | 0.00 | 0.00 | 23 | 1011.8 |
| 20260904164521 | 66 | 215 | 2.0 | 6.0 | 0.00 | 0.00 | 0.00 | 26 | 1011.5 |
| 20260904163017 | 64 | 206 | 3.0 | 6.0 | 0.00 | 0.00 | 0.00 | 29 | 1011.3 |
| 20260904161515 | 63 | 82 | 2.0 | 5.0 | 0.00 | 0.00 | 0.00 | 33 | 1011.0 |
| 20260904160016 | 63 | 142 | 2.0 | 7.0 | 0.00 | 0.00 | 0.00 | 33 | 1010.9 |
| 20260904154528 | 62 | 128 | 1.0 | 5.0 | 0.00 | 0.00 | 0.00 | 31 | 1010.7 |
| 20260904153009 | 61 | 164 | 1.0 | 7.0 | 0.00 | 0.00 | 0.00 | 31 | 1010.5 |
| 20260904151504 | 61 | 214 | 1.0 | 5.0 | 0.00 | 0.00 | 0.00 | 34 | 1010.3 |
| 20260904150106 | 60 | 264 | 2.0 | 4.0 | 0.00 | 0.00 | 0.00 | 32 | 1010.2 |
| 20260904144558 | 59 | 180 | 1.0 | 4.0 | 0.00 | 0.00 | 0.00 | 29 | 1010.0 |
| 20260904143059 | 58 | 148 | 2.0 | 8.0 | 0.00 | 0.00 | 0.00 | 27 | 1009.7 |
| 20260904141555 | 58 | 300 | 0.0 | 6.0 | 0.00 | 0.00 | 0.00 | 21 | 1009.7 |
| 20260904140053 | 58 | 186 | 1.0 | 7.0 | 0.00 | 0.00 | 0.00 | 16 | 1009.3 |
| 20260904134552 | 57 | 192 | 2.0 | 9.0 | 0.00 | 0.00 | 0.00 | 22 | 1009.2 |
| 20260904133059 | 57 | 186 | 2.0 | 10.0 | 0.00 | 0.00 | 0.00 | 30 | 1009.0 |
| 20260904131547 | 57 | 216 | 3.0 | 8.0 | 0.00 | 0.00 | 0.00 | 36 | 1008.8 |
| 20260904130046 | 57 | 244 | 2.0 | 7.0 | 0.00 | 0.00 | 0.00 | 38 | 1008.4 |